When you browse on this site, cookies collect data to enhance your experience and personalize the content and advertising you see.
Visit our Privacy Policy to learn more. By continuing to use the site, you agree to this use of cookies and data.
  • In United Kingdom
  • List of Countries
  • For 7 days
  • Water Temperature
  • Satellite Maps
  • Weather Map
  • Weather Widgets
  • user-avatar
    Login

    Hourly Weather Cesis

    Today, 25 April, Thursday

    Time Temperature Precipitation Wind Pressure Humidity
    00:00 +13°C° 0 mm 2 mps 759 mmHg 56%
    01:00 +13°C° 0 mm 2 mps 759 mmHg 56%
    02:00 +13°C° 0 mm 2 mps 759 mmHg 56%
    03:00 +13°C° 0 mm 2 mps 759 mmHg 56%
    04:00 +13°C° 0 mm 2 mps 759 mmHg 57%
    05:00 +13°C° 0 mm 2 mps 759 mmHg 58%
    06:00 +13°C° 0 mm 3 mps 758 mmHg 56%
    07:00 +14°C° 0 mm 3 mps 758 mmHg 54%
    08:00 +16°C° 0 mm 3 mps 758 mmHg 52%
    09:00 +18°C° 0 mm 3 mps 758 mmHg 45%
    10:00 +19°C° 0 mm 4 mps 758 mmHg 38%
    11:00 +21°C° 0 mm 4 mps 758 mmHg 32%
    12:00 +21°C° 0 mm 4 mps 757 mmHg 31%
    13:00 +22°C° 0 mm 4 mps 757 mmHg 31%
    14:00 +22°C° 0 mm 4 mps 757 mmHg 31%
    15:00 +22°C° 0 mm 4 mps 757 mmHg 33%
    16:00 +22°C° 0 mm 3 mps 757 mmHg 35%
    17:00 +22°C° 0 mm 3 mps 756 mmHg 38%
    18:00 +20°C° 0 mm 3 mps 756 mmHg 45%
    19:00 +18°C° 0 mm 2 mps 756 mmHg 52%
    20:00 +16°C° 0 mm 2 mps 756 mmHg 60%
    21:00 +15°C° 0 mm 2 mps 756 mmHg 62%
    22:00 +14°C° 0 mm 2 mps 756 mmHg 65%
    23:00 +14°C° 0 mm 2 mps 756 mmHg 67%

    Tomorrow, 26 April, Friday

    Time Temperature Precipitation Wind Pressure Humidity
    00:00 +13°C° 0 mm 2 mps 756 mmHg 68%
    01:00 +13°C° 0 mm 2 mps 756 mmHg 69%
    02:00 +13°C° 0 mm 2 mps 756 mmHg 70%
    03:00 +13°C° 0 mm 2 mps 756 mmHg 71%
    04:00 +12°C° 0 mm 2 mps 756 mmHg 73%
    05:00 +12°C° 0 mm 2 mps 755 mmHg 74%
    06:00 +14°C° 0 mm 2 mps 755 mmHg 69%
    07:00 +14°C° 0 mm 3 mps 755 mmHg 64%
    08:00 +17°C° 0 mm 3 mps 755 mmHg 59%
    09:00 +19°C° 0 mm 3 mps 755 mmHg 54%
    10:00 +20°C° 0 mm 3 mps 754 mmHg 49%
    11:00 +22°C° 0 mm 3 mps 754 mmHg 43%
    12:00 +24°C° 0 mm 3 mps 754 mmHg 42%
    13:00 +24°C° 0 mm 3 mps 753 mmHg 40%
    14:00 +25°C° 0 mm 3 mps 753 mmHg 39%
    15:00 +25°C° 0 mm 3 mps 753 mmHg 40%
    16:00 +25°C° 0 mm 3 mps 752 mmHg 41%
    17:00 +24°C° 0 mm 3 mps 752 mmHg 42%
    18:00 +23°C° 0 mm 2 mps 752 mmHg 49%
    19:00 +20°C° 0 mm 2 mps 751 mmHg 57%
    20:00 +18°C° 0 mm 2 mps 751 mmHg 64%
    21:00 +17°C° 0.1 mm 2 mps 751 mmHg 68%
    22:00 +16°C° 0.1 mm 2 mps 751 mmHg 72%
    23:00 +15°C° 0.1 mm 2 mps 751 mmHg 76%

    Day after tomorrow, 27 April, Saturday

    Time Temperature Precipitation Wind Pressure Humidity
    00:00 +15°C° 0 mm 2 mps 750 mmHg 78%
    01:00 +14°C° 0 mm 2 mps 750 mmHg 80%
    02:00 +14°C° 0 mm 2 mps 750 mmHg 83%
    03:00 +13°C° 0 mm 2 mps 749 mmHg 85%
    04:00 +13°C° 0 mm 2 mps 749 mmHg 87%
    05:00 +13°C° 0 mm 1 mps 749 mmHg 89%
    06:00 +14°C° 0 mm 1 mps 749 mmHg 82%
    07:00 +16°C° 0 mm 1 mps 748 mmHg 76%
    08:00 +19°C° 0 mm 1 mps 748 mmHg 70%
    09:00 +21°C° 0 mm 1 mps 748 mmHg 64%
    10:00 +21°C° 0 mm 2 mps 748 mmHg 58%
    11:00 +24°C° 0 mm 2 mps 748 mmHg 52%
    12:00 +25°C° 0.7 mm 1 mps 747 mmHg 52%
    13:00 +26°C° 0.7 mm 1 mps 747 mmHg 51%
    14:00 +24°C° 0.7 mm 0 mps 747 mmHg 51%
    15:00 +26°C° 0.3 mm 1 mps 747 mmHg 53%
    16:00 +25°C° 0.3 mm 2 mps 747 mmHg 55%
    17:00 +24°C° 0.3 mm 3 mps 746 mmHg 58%
    18:00 +21°C° 0.1 mm 3 mps 747 mmHg 65%
    19:00 +19°C° 0.1 mm 3 mps 747 mmHg 72%
    20:00 +18°C° 0.1 mm 3 mps 747 mmHg 79%
    21:00 +17°C° 0 mm 3 mps 748 mmHg 80%
    22:00 +15°C° 0 mm 4 mps 748 mmHg 81%
    23:00 +14°C° 0 mm 4 mps 748 mmHg 82%

    28 April, Sunday

    Time Temperature Precipitation Wind Pressure Humidity
    00:00 +14°C° 0 mm 5 mps 749 mmHg 82%
    01:00 +13°C° 0 mm 5 mps 749 mmHg 82%
    02:00 +12°C° 0 mm 5 mps 750 mmHg 82%
    03:00 +12°C° 0 mm 5 mps 750 mmHg 81%
    04:00 +10°C° 0 mm 5 mps 751 mmHg 79%
    05:00 +9°C° 0 mm 6 mps 751 mmHg 78%
    06:00 +9°C° 0 mm 6 mps 752 mmHg 73%
    07:00 +9°C° 0 mm 6 mps 753 mmHg 69%
    08:00 +9°C° 0 mm 6 mps 753 mmHg 64%
    09:00 +10°C° 0 mm 6 mps 754 mmHg 59%
    10:00 +11°C° 0 mm 6 mps 754 mmHg 54%
    11:00 +13°C° 0 mm 6 mps 755 mmHg 49%
    12:00 +13°C° 0 mm 6 mps 755 mmHg 44%
    13:00 +14°C° 0 mm 6 mps 755 mmHg 39%
    14:00 +14°C° 0 mm 6 mps 756 mmHg 35%
    15:00 +14°C° 0 mm 6 mps 756 mmHg 35%
    16:00 +13°C° 0 mm 5 mps 756 mmHg 35%
    17:00 +13°C° 0 mm 5 mps 756 mmHg 34%
    18:00 +10°C° 0 mm 5 mps 757 mmHg 38%
    19:00 +10°C° 0 mm 4 mps 757 mmHg 42%
    20:00 +7°C° 0 mm 4 mps 758 mmHg 45%
    21:00 +6°C° 0 mm 4 mps 759 mmHg 46%
    22:00 +6°C° 0 mm 4 mps 759 mmHg 47%
    23:00 +5°C° 0 mm 4 mps 760 mmHg 48%

    29 April, Monday

    Time Temperature Precipitation Wind Pressure Humidity
    00:00 +4°C° 0 mm 4 mps 760 mmHg 49%
    01:00 +3°C° 0 mm 4 mps 760 mmHg 51%
    02:00 +3°C° 0 mm 3 mps 761 mmHg 53%
    03:00 +2°C° 0 mm 3 mps 761 mmHg 55%
    04:00 +1°C° 0 mm 3 mps 761 mmHg 57%
    05:00 +1°C° 0 mm 3 mps 761 mmHg 60%
    06:00 +2°C° 0 mm 3 mps 762 mmHg 55%
    07:00 +4°C° 0 mm 3 mps 762 mmHg 50%
    08:00 +5°C° 0 mm 4 mps 762 mmHg 45%
    09:00 +6°C° 0 mm 4 mps 762 mmHg 41%
    10:00 +8°C° 0 mm 4 mps 762 mmHg 36%
    11:00 +10°C° 0 mm 4 mps 762 mmHg 31%
    12:00 +11°C° 0 mm 4 mps 761 mmHg 30%
    13:00 +12°C° 0 mm 4 mps 761 mmHg 29%
    14:00 +13°C° 0 mm 4 mps 761 mmHg 28%
    15:00 +12°C° 0 mm 4 mps 761 mmHg 29%
    16:00 +12°C° 0 mm 4 mps 760 mmHg 30%
    17:00 +12°C° 0 mm 3 mps 760 mmHg 31%
    18:00 +10°C° 0 mm 3 mps 760 mmHg 38%
    19:00 +8°C° 0 mm 2 mps 760 mmHg 44%
    20:00 +7°C° 0 mm 2 mps 760 mmHg 51%
    21:00 +6°C° 0 mm 2 mps 761 mmHg 53%
    22:00 +5°C° 0 mm 2 mps 761 mmHg 56%
    23:00 +4°C° 0 mm 2 mps 761 mmHg 58%

    30 April, Tuesday

    Time Temperature Precipitation Wind Pressure Humidity
    00:00 +3°C° 0 mm 2 mps 761 mmHg 60%
    01:00 +3°C° 0 mm 2 mps 761 mmHg 62%
    02:00 +2°C° 0 mm 2 mps 761 mmHg 64%
    03:00 +2°C° 0 mm 2 mps 761 mmHg 64%
    04:00 +1°C° 0 mm 2 mps 761 mmHg 64%
    05:00 +1°C° 0 mm 2 mps 761 mmHg 64%
    06:00 +3°C° 0 mm 2 mps 761 mmHg 57%
    07:00 +5°C° 0 mm 2 mps 761 mmHg 51%
    08:00 +7°C° 0 mm 2 mps 761 mmHg 44%
    09:00 +9°C° 0 mm 2 mps 761 mmHg 40%
    10:00 +10°C° 0 mm 2 mps 761 mmHg 36%
    11:00 +12°C° 0 mm 3 mps 761 mmHg 31%
    12:00 +13°C° 0 mm 3 mps 761 mmHg 30%
    13:00 +14°C° 0 mm 2 mps 760 mmHg 29%
    14:00 +15°C° 0 mm 2 mps 760 mmHg 28%
    15:00 +15°C° 0 mm 2 mps 760 mmHg 29%
    16:00 +15°C° 0 mm 2 mps 759 mmHg 29%
    17:00 +15°C° 0 mm 2 mps 759 mmHg 30%
    18:00 +13°C° 0 mm 2 mps 759 mmHg 36%
    19:00 +11°C° 0 mm 1 mps 758 mmHg 43%
    20:00 +9°C° 0 mm 1 mps 758 mmHg 50%
    21:00 +8°C° 0 mm 1 mps 758 mmHg 52%
    22:00 +7°C° 0 mm 1 mps 758 mmHg 55%
    23:00 +6°C° 0 mm 1 mps 758 mmHg 57%
    Show more